TimeCDT,TemperatureF,Dew PointF,Humidity,Sea Level PressureIn,VisibilityMPH,Wind Direction,Wind SpeedMPH,Gust SpeedMPH,PrecipitationIn,Events,Conditions,WindDirDegrees,DateUTC
12:15 AM,44.6,39.2,81,30.11,10.0,WSW,8.1,-,N/A,,Clear,250,2012-10-15 05:15:00
12:35 AM,44.6,39.2,81,30.11,10.0,WSW,8.1,-,N/A,,Clear,240,2012-10-15 05:35:00
12:55 AM,46.4,39.2,76,30.10,10.0,WSW,9.2,-,N/A,,Clear,250,2012-10-15 05:55:00
1:15 AM,44.6,37.4,76,30.10,10.0,West,8.1,-,N/A,,Clear,260,2012-10-15 06:15:00
1:35 AM,44.6,37.4,76,30.09,10.0,West,6.9,-,N/A,,Clear,260,2012-10-15 06:35:00
1:55 AM,42.8,37.4,81,30.09,10.0,West,9.2,-,N/A,,Clear,260,2012-10-15 06:55:00
2:15 AM,42.8,37.4,81,30.08,10.0,West,9.2,-,N/A,,Clear,260,2012-10-15 07:15:00
2:35 AM,44.6,37.4,76,30.08,10.0,WSW,8.1,-,N/A,,Clear,250,2012-10-15 07:35:00
2:55 AM,46.4,39.2,76,30.08,10.0,West,9.2,-,N/A,,Clear,260,2012-10-15 07:55:00
3:15 AM,44.6,39.2,81,30.07,10.0,West,9.2,-,N/A,,Clear,260,2012-10-15 08:15:00
3:35 AM,46.4,41.0,81,30.07,10.0,West,9.2,-,N/A,,Clear,260,2012-10-15 08:35:00
3:55 AM,44.6,39.2,81,30.07,10.0,West,8.1,-,N/A,,Clear,260,2012-10-15 08:55:00
4:15 AM,44.6,39.2,81,30.06,10.0,West,8.1,-,N/A,,Clear,260,2012-10-15 09:15:00
4:35 AM,44.6,41.0,87,30.06,10.0,West,8.1,-,N/A,,Clear,260,2012-10-15 09:35:00
4:55 AM,46.4,41.0,81,30.05,10.0,West,10.4,-,N/A,,Clear,270,2012-10-15 09:55:00
5:15 AM,44.6,41.0,87,30.05,10.0,West,8.1,-,N/A,,Clear,260,2012-10-15 10:15:00
5:35 AM,44.6,41.0,87,30.05,10.0,West,9.2,-,N/A,,Clear,260,2012-10-15 10:35:00
5:55 AM,44.6,39.2,81,30.04,10.0,West,8.1,-,N/A,,Clear,260,2012-10-15 10:55:00
6:15 AM,42.8,41.0,93,30.04,10.0,WSW,6.9,-,N/A,,Clear,250,2012-10-15 11:15:00
6:35 AM,44.6,39.2,81,30.04,10.0,WSW,8.1,-,N/A,,Clear,250,2012-10-15 11:35:00
7:35 AM,44.6,39.2,81,30.04,10.0,WSW,8.1,-,N/A,,Clear,250,2012-10-15 12:35:00
7:55 AM,42.8,39.2,87,30.03,10.0,West,8.1,-,N/A,,Clear,260,2012-10-15 12:55:00
8:35 AM,46.4,41.0,81,30.03,10.0,WSW,8.1,-,N/A,,Clear,250,2012-10-15 13:35:00
8:55 AM,48.2,41.0,76,30.03,10.0,WSW,8.1,-,N/A,,Clear,250,2012-10-15 13:55:00
9:15 AM,51.8,42.8,71,30.03,10.0,WSW,8.1,-,N/A,,Clear,250,2012-10-15 14:15:00
9:35 AM,55.4,42.8,63,30.03,10.0,WSW,8.1,-,N/A,,Clear,240,2012-10-15 14:35:00
9:55 AM,59.0,42.8,55,30.03,10.0,WSW,11.5,-,N/A,,Clear,250,2012-10-15 14:55:00
10:15 AM,62.6,44.6,52,30.03,10.0,WSW,9.2,-,N/A,,Clear,250,2012-10-15 15:15:00
10:35 AM,64.4,44.6,49,30.03,10.0,WSW,8.1,-,N/A,,Clear,240,2012-10-15 15:35:00
10:55 AM,68.0,44.6,43,30.02,10.0,SW,10.4,-,N/A,,Clear,220,2012-10-15 15:55:00
11:35 AM,71.6,44.6,38,30.01,10.0,SSW,8.1,-,N/A,,Clear,210,2012-10-15 16:35:00
11:55 AM,73.4,44.6,36,30.00,10.0,SSW,8.1,-,N/A,,Clear,200,2012-10-15 16:55:00
12:15 PM,75.2,42.8,31,29.99,10.0,South,5.8,-,N/A,,Clear,190,2012-10-15 17:15:00
12:35 PM,77.0,42.8,29,29.98,10.0,South,8.1,-,N/A,,Clear,170,2012-10-15 17:35:00
1:15 PM,77.0,41.0,28,29.97,10.0,SSW,4.6,-,N/A,,Clear,200,2012-10-15 18:15:00
1:35 PM,78.8,41.0,26,29.95,10.0,SSE,9.2,-,N/A,,Clear,160,2012-10-15 18:35:00
1:55 PM,78.8,41.0,26,29.93,10.0,Calm,Calm,-,N/A,,Clear,0,2012-10-15 18:55:00
2:15 PM,78.8,39.2,24,29.92,10.0,SSE,8.1,-,N/A,,Clear,160,2012-10-15 19:15:00
2:35 PM,80.6,41.0,24,29.91,10.0,ESE,8.1,-,N/A,,Clear,110,2012-10-15 19:35:00
2:55 PM,80.6,41.0,24,29.90,10.0,SE,9.2,-,N/A,,Clear,140,2012-10-15 19:55:00
3:15 PM,80.6,41.0,24,29.88,10.0,South,9.2,-,N/A,,Clear,170,2012-10-15 20:15:00
3:35 PM,80.6,41.0,24,29.88,10.0,SSE,9.2,-,N/A,,Clear,160,2012-10-15 20:35:00
3:55 PM,80.6,41.0,24,29.87,10.0,SSW,5.8,-,N/A,,Clear,210,2012-10-15 20:55:00
4:15 PM,80.6,41.0,24,29.86,10.0,SSE,12.7,20.7,N/A,,Clear,160,2012-10-15 21:15:00
4:35 PM,80.6,41.0,24,29.86,10.0,South,10.4,-,N/A,,Clear,180,2012-10-15 21:35:00
4:55 PM,80.6,42.8,26,29.85,10.0,SSW,8.1,-,N/A,,Clear,210,2012-10-15 21:55:00
5:15 PM,80.6,42.8,26,29.85,10.0,SSE,6.9,-,N/A,,Clear,150,2012-10-15 22:15:00
5:35 PM,78.8,41.0,26,29.84,10.0,South,5.8,-,N/A,,Clear,180,2012-10-15 22:35:00
6:15 PM,78.8,42.8,28,29.84,10.0,South,6.9,-,N/A,,Clear,180,2012-10-15 23:15:00
6:35 PM,77.0,42.8,29,29.84,10.0,South,6.9,-,N/A,,Clear,170,2012-10-15 23:35:00
6:55 PM,73.4,42.8,33,29.84,10.0,South,5.8,-,N/A,,Clear,180,2012-10-15 23:55:00
7:15 PM,71.6,42.8,35,29.83,10.0,South,4.6,-,N/A,,Clear,180,2012-10-16 00:15:00
7:35 PM,68.0,42.8,40,29.82,10.0,South,4.6,-,N/A,,Clear,190,2012-10-16 00:35:00
7:55 PM,66.2,42.8,43,29.83,10.0,SSW,4.6,-,N/A,,Clear,200,2012-10-16 00:55:00
8:15 PM,60.8,42.8,52,29.84,10.0,SSW,6.9,-,N/A,,Clear,210,2012-10-16 01:15:00
8:35 PM,59.0,42.8,55,29.84,10.0,SW,4.6,-,N/A,,Clear,220,2012-10-16 01:35:00
8:55 PM,55.4,42.8,63,29.82,10.0,SSW,3.5,-,N/A,,Clear,200,2012-10-16 01:55:00
9:15 PM,53.6,42.8,67,29.82,10.0,SW,5.8,-,N/A,,Clear,220,2012-10-16 02:15:00
9:35 PM,55.4,42.8,63,29.82,10.0,SW,3.5,-,N/A,,Clear,220,2012-10-16 02:35:00
9:55 PM,51.8,41.0,67,29.82,10.0,SW,5.8,-,N/A,,Clear,230,2012-10-16 02:55:00
10:15 PM,51.8,41.0,67,29.82,10.0,SW,6.9,-,N/A,,Clear,220,2012-10-16 03:15:00
10:35 PM,51.8,41.0,67,29.82,10.0,SW,4.6,-,N/A,,Clear,230,2012-10-16 03:35:00
10:55 PM,51.8,41.0,67,29.81,10.0,SW,6.9,-,N/A,,Clear,220,2012-10-16 03:55:00
11:15 PM,50.0,41.0,71,29.81,10.0,SW,9.2,-,N/A,,Clear,220,2012-10-16 04:15:00
11:35 PM,50.0,41.0,71,29.81,10.0,WSW,6.9,-,N/A,,Clear,250,2012-10-16 04:35:00
11:55 PM,48.2,41.0,76,29.80,10.0,WSW,8.1,-,N/A,,Clear,240,2012-10-16 04:55:00